Location: Tel Aviv
(32.0670°N, 34.7670°E)
Time: 15:58:20
(UTC+02:00)

KAITUO 1B - Visible Passes

Search period start: 21 March 2023 00:00
Search period end: 31 March 2023 01:00
Orbit: 447 x 463 km, 97.4° (Epoch: 21 March)

Date Brightness Start Highest point End Pass type
(mag) Time Alt. Az. Time Alt. Az. Time Alt. Az.
22 Mar ? 18:43:13 10° SW 18:45:14 15° W 18:47:17 10° WNW visible
25 Mar ? 19:34:59 10° SW 19:37:29 19° W 19:40:01 10° NW visible
28 Mar ? 19:26:15 10° SSW 19:29:06 26° W 19:31:59 10° NW visible
30 Mar ? 19:53:00 10° WSW 19:54:12 11° W 19:55:24 10° WNW visible
